When you browse on this site, cookies collect data to enhance your experience and personalize the content and advertising you see.
Visit our Privacy Policy to learn more. By continuing to use the site, you agree to this use of cookies and data.
  • în România
  • Lista ţărilor
  • Pe 7 zile
  • Temperatura apei
  • Hartă satelitară
  • Meteo pe hartă
  • Widget-uri
  • user-avatar
    Intrare

    Meteo pe oră la Rayvio

    Astăzi, 22 Iulie, Luni

    Timp Temperatura Precipitaţii Vânt Presiune Umiditate
    00:00 +14°C° 0 mm 1 m/s 754 mmHg 71%
    01:00 +14°C° 0 mm 1 m/s 754 mmHg 72%
    02:00 +14°C° 0 mm 1 m/s 754 mmHg 75%
    03:00 +15°C° 0 mm 1 m/s 754 mmHg 75%
    04:00 +15°C° 0 mm 1 m/s 754 mmHg 74%
    05:00 +15°C° 0 mm 0 m/s 754 mmHg 73%
    06:00 +19°C° 0 mm 1 m/s 754 mmHg 66%
    07:00 +21°C° 0 mm 1 m/s 754 mmHg 59%
    08:00 +24°C° 0 mm 1 m/s 753 mmHg 52%
    09:00 +24°C° 0 mm 1 m/s 753 mmHg 48%
    10:00 +25°C° 0 mm 1 m/s 753 mmHg 44%
    11:00 +26°C° 0 mm 1 m/s 753 mmHg 41%
    12:00 +26°C° 0 mm 1 m/s 753 mmHg 43%
    13:00 +25°C° 0 mm 1 m/s 753 mmHg 45%
    14:00 +25°C° 0 mm 1 m/s 753 mmHg 48%
    15:00 +24°C° 0 mm 1 m/s 753 mmHg 48%
    16:00 +24°C° 0 mm 1 m/s 752 mmHg 47%
    17:00 +24°C° 0 mm 1 m/s 752 mmHg 47%
    18:00 +23°C° 0 mm 1 m/s 752 mmHg 53%
    19:00 +21°C° 0 mm 1 m/s 752 mmHg 59%
    20:00 +18°C° 0 mm 0 m/s 752 mmHg 65%
    21:00 +19°C° 0 mm 1 m/s 752 mmHg 65%
    22:00 +18°C° 0 mm 1 m/s 752 mmHg 66%
    23:00 +16°C° 0 mm 1 m/s 752 mmHg 66%

    Mâine, 23 Iulie, Marţi

    Timp Temperatura Precipitaţii Vânt Presiune Umiditate
    00:00 +16°C° 0 mm 1 m/s 752 mmHg 68%
    01:00 +15°C° 0 mm 1 m/s 752 mmHg 69%
    02:00 +14°C° 0 mm 0 m/s 752 mmHg 71%
    03:00 +15°C° 0 mm 1 m/s 752 mmHg 72%
    04:00 +15°C° 0 mm 1 m/s 752 mmHg 72%
    05:00 +16°C° 0 mm 1 m/s 752 mmHg 73%
    06:00 +18°C° 0 mm 1 m/s 752 mmHg 66%
    07:00 +20°C° 0 mm 1 m/s 752 mmHg 59%
    08:00 +22°C° 0 mm 1 m/s 752 mmHg 52%
    09:00 +23°C° 0 mm 2 m/s 752 mmHg 49%
    10:00 +24°C° 0 mm 2 m/s 752 mmHg 45%
    11:00 +25°C° 0 mm 3 m/s 752 mmHg 41%
    12:00 +25°C° 0 mm 3 m/s 752 mmHg 38%
    13:00 +25°C° 0 mm 3 m/s 752 mmHg 36%
    14:00 +26°C° 0 mm 3 m/s 752 mmHg 33%
    15:00 +25°C° 0 mm 3 m/s 752 mmHg 34%
    16:00 +25°C° 0 mm 3 m/s 752 mmHg 35%
    17:00 +25°C° 0 mm 3 m/s 752 mmHg 36%
    18:00 +23°C° 0 mm 2 m/s 752 mmHg 43%
    19:00 +21°C° 0 mm 1 m/s 751 mmHg 49%
    20:00 +20°C° 0 mm 1 m/s 751 mmHg 56%
    21:00 +19°C° 0 mm 1 m/s 751 mmHg 56%
    22:00 +18°C° 0 mm 1 m/s 752 mmHg 56%
    23:00 +15°C° 0 mm 0 m/s 752 mmHg 56%

    Poimâine, 24 Iulie, Miercuri

    Timp Temperatura Precipitaţii Vânt Presiune Umiditate
    00:00 +15°C° 0.1 mm 0 m/s 752 mmHg 60%
    01:00 +14°C° 0.1 mm 0 m/s 752 mmHg 63%
    02:00 +14°C° 0.1 mm 0 m/s 752 mmHg 67%
    03:00 +15°C° 0 mm 1 m/s 752 mmHg 69%
    04:00 +15°C° 0 mm 1 m/s 752 mmHg 70%
    05:00 +16°C° 0 mm 1 m/s 752 mmHg 72%
    06:00 +18°C° 0 mm 1 m/s 752 mmHg 68%
    07:00 +19°C° 0 mm 1 m/s 752 mmHg 64%
    08:00 +21°C° 0 mm 1 m/s 752 mmHg 60%
    09:00 +20°C° 0 mm 2 m/s 752 mmHg 58%
    10:00 +20°C° 0 mm 2 m/s 752 mmHg 57%
    11:00 +21°C° 0 mm 2 m/s 752 mmHg 56%
    12:00 +21°C° 0 mm 2 m/s 752 mmHg 57%
    13:00 +20°C° 0 mm 2 m/s 752 mmHg 59%
    14:00 +20°C° 0 mm 2 m/s 752 mmHg 60%
    15:00 +20°C° 0 mm 2 m/s 752 mmHg 62%
    16:00 +19°C° 0 mm 2 m/s 752 mmHg 64%
    17:00 +19°C° 0 mm 2 m/s 752 mmHg 65%
    18:00 +19°C° 0 mm 1 m/s 752 mmHg 69%
    19:00 +18°C° 0 mm 1 m/s 752 mmHg 73%
    20:00 +18°C° 0 mm 1 m/s 752 mmHg 76%
    21:00 +16°C° 0 mm 1 m/s 753 mmHg 79%
    22:00 +15°C° 0 mm 1 m/s 753 mmHg 81%
    23:00 +15°C° 0 mm 1 m/s 753 mmHg 84%

    25 Iulie, Joi

    Timp Temperatura Precipitaţii Vânt Presiune Umiditate
    00:00 +14°C° 0 mm 1 m/s 753 mmHg 85%
    01:00 +14°C° 0 mm 1 m/s 753 mmHg 87%
    02:00 +13°C° 0 mm 1 m/s 753 mmHg 88%
    03:00 +14°C° 0 mm 1 m/s 753 mmHg 87%
    04:00 +14°C° 0 mm 1 m/s 754 mmHg 85%
    05:00 +15°C° 0 mm 1 m/s 754 mmHg 83%
    06:00 +18°C° 0 mm 1 m/s 754 mmHg 75%
    07:00 +20°C° 0 mm 1 m/s 754 mmHg 68%
    08:00 +22°C° 0 mm 1 m/s 754 mmHg 60%
    09:00 +24°C° 0 mm 1 m/s 754 mmHg 55%
    10:00 +26°C° 0 mm 1 m/s 755 mmHg 49%
    11:00 +28°C° 0 mm 1 m/s 755 mmHg 43%
    12:00 +28°C° 0 mm 1 m/s 755 mmHg 42%
    13:00 +29°C° 0 mm 1 m/s 755 mmHg 41%
    14:00 +29°C° 0 mm 2 m/s 755 mmHg 40%
    15:00 +28°C° 0 mm 1 m/s 754 mmHg 43%
    16:00 +28°C° 0 mm 1 m/s 754 mmHg 47%
    17:00 +27°C° 0 mm 1 m/s 754 mmHg 50%
    18:00 +26°C° 0 mm 1 m/s 755 mmHg 57%
    19:00 +24°C° 0 mm 1 m/s 755 mmHg 64%
    20:00 +23°C° 0 mm 1 m/s 755 mmHg 70%
    21:00 +21°C° 0 mm 1 m/s 755 mmHg 73%
    22:00 +20°C° 0 mm 1 m/s 755 mmHg 75%
    23:00 +19°C° 0 mm 1 m/s 755 mmHg 77%

    26 Iulie, Vineri

    Timp Temperatura Precipitaţii Vânt Presiune Umiditate
    00:00 +19°C° 0 mm 1 m/s 756 mmHg 78%
    01:00 +19°C° 0 mm 1 m/s 756 mmHg 79%
    02:00 +18°C° 0 mm 1 m/s 756 mmHg 79%
    03:00 +19°C° 0 mm 1 m/s 756 mmHg 79%
    04:00 +19°C° 0 mm 1 m/s 756 mmHg 78%
    05:00 +19°C° 0 mm 1 m/s 756 mmHg 77%
    06:00 +21°C° 0 mm 1 m/s 757 mmHg 71%
    07:00 +23°C° 0 mm 1 m/s 757 mmHg 65%
    08:00 +24°C° 0 mm 1 m/s 757 mmHg 58%
    09:00 +26°C° 0 mm 1 m/s 757 mmHg 54%
    10:00 +27°C° 0 mm 1 m/s 757 mmHg 50%
    11:00 +28°C° 0 mm 1 m/s 757 mmHg 46%
    12:00 +28°C° 0 mm 1 m/s 756 mmHg 44%
    13:00 +29°C° 0 mm 1 m/s 756 mmHg 42%
    14:00 +29°C° 0 mm 1 m/s 756 mmHg 41%
    15:00 +29°C° 0 mm 1 m/s 756 mmHg 41%
    16:00 +29°C° 0 mm 1 m/s 755 mmHg 42%
    17:00 +29°C° 0 mm 1 m/s 755 mmHg 43%
    18:00 +27°C° 0 mm 1 m/s 755 mmHg 50%
    19:00 +25°C° 0 mm 1 m/s 755 mmHg 57%
    20:00 +23°C° 0 mm 1 m/s 755 mmHg 65%
    21:00 +22°C° 0 mm 1 m/s 755 mmHg 66%
    22:00 +21°C° 0 mm 1 m/s 755 mmHg 68%
    23:00 +20°C° 0 mm 1 m/s 755 mmHg 70%

    27 Iulie, Sâmbătă

    Timp Temperatura Precipitaţii Vânt Presiune Umiditate
    00:00 +19°C° 0 mm 2 m/s 755 mmHg 70%
    01:00 +19°C° 0 mm 2 m/s 755 mmHg 70%
    02:00 +18°C° 0 mm 2 m/s 755 mmHg 70%
    03:00 +19°C° 0 mm 2 m/s 754 mmHg 70%
    04:00 +19°C° 0 mm 2 m/s 754 mmHg 71%
    05:00 +19°C° 0 mm 2 m/s 754 mmHg 72%
    06:00 +21°C° 0 mm 2 m/s 754 mmHg 65%
    07:00 +24°C° 0 mm 2 m/s 754 mmHg 59%
    08:00 +26°C° 0 mm 2 m/s 753 mmHg 53%
    09:00 +28°C° 0 mm 3 m/s 753 mmHg 48%
    10:00 +29°C° 0 mm 3 m/s 753 mmHg 44%
    11:00 +30°C° 0 mm 3 m/s 753 mmHg 39%
    12:00 +31°C° 0 mm 3 m/s 753 mmHg 39%
    13:00 +32°C° 0 mm 4 m/s 753 mmHg 39%
    14:00 +32°C° 0 mm 4 m/s 753 mmHg 39%
    15:00 +32°C° 0 mm 4 m/s 753 mmHg 41%
    16:00 +30°C° 0 mm 4 m/s 753 mmHg 43%
    17:00 +29°C° 0 mm 4 m/s 753 mmHg 45%
    18:00 +27°C° 0 mm 4 m/s 753 mmHg 53%
    19:00 +23°C° 0 mm 4 m/s 753 mmHg 62%
    20:00 +21°C° 0 mm 3 m/s 754 mmHg 70%
    21:00 +19°C° 0 mm 3 m/s 754 mmHg 70%
    22:00 +18°C° 0 mm 4 m/s 755 mmHg 70%
    23:00 +15°C° 0 mm 4 m/s 755 mmHg 70%
    Arată mai mult